Flag for Canada

Past Weather in Whitby, Ontario, Canada — Yesterday and Last 2 Weeks

Now
82 °F

Thundershowers. Overcast.


Feels Like: 86 °F
Forecast: 77 / 72 °F
Wind: 12 mph from East

Location: Oshawa

Current Time: Jul 10, 2020 at 10:41:29 pm

Latest Report: Jul 10, 2020 at 9:38 pm


Visibility: 9 mi

Pressure: 29.70 "Hg

Humidity: 66%

Dew Point: 70 °F

Location of WhitbyLocation

Past Weather in Whitby — Graph

°F

Whitby Temperature Yesterday

Maximum temperature yesterday: 91 °F (at 3:02 pm)
Minimum temperature yesterday: 70 °F (at 4:00 am)
Average temperature yesterday: 81 °F

High & Low Weather Summary for the Past Weeks

 TemperatureHumidityPressure
High93 °F (Jul 2, 2:00 pm)100% (Jun 27, 8:09 am)30.05 "Hg (Jun 27, 8:09 am)
Low54 °F (Jun 26, 5:00 am)26% (Jul 5, 3:00 pm)29.63 "Hg (Jun 27, 4:00 pm)
Average76 °F64%29.89 "Hg
* Reported Jun 25 9:00 pm — Jul 10 9:38 pm, Whitby. Weather by CustomWeather, © 2020

Note: Actual official high and low records may vary slightly from our data, if they occured in-between our weather recording intervals... More about our weather records

Whitby Weather History for the Previous 24 Hours

Scroll right to see more
 ConditionsComfort  
Time TempWeatherWind HumidityBarometerVisibility
9:38 pm
Fri, Jul 10
82 °FThundershowers. Overcast.12 mph66%29.70 "Hg9 mi
8:55 pm82 °FThundershowers. Cloudy.10 mph62%29.71 "Hg9 mi
8:00 pm86 °FBroken clouds.14 mph55%29.71 "Hg9 mi
7:00 pm88 °FSunny.14 mph52%29.72 "Hg9 mi
6:00 pm88 °FSunny.14 mph55%29.73 "Hg9 mi
5:00 pm90 °FSunny.16 mph49%29.75 "Hg9 mi
4:00 pm90 °FSunny.15 mph52%29.77 "Hg9 mi
3:00 pm90 °FSunny.12 mph52%29.78 "Hg9 mi
2:00 pm88 °FSunny.9 mph52%29.80 "Hg9 mi
1:05 pm88 °FHaze.8 mph55%29.83 "Hg6 mi
12:55 pm86 °FHaze.8 mph55%29.84 "Hg5 mi
12:00 pm84 °FSunny.6 mph62%29.85 "Hg9 mi
11:00 am84 °FScattered clouds.7 mph62%29.85 "Hg9 mi
10:00 am82 °FSunny.6 mph66%29.86 "Hg9 mi
9:00 am81 °FSunny.7 mph74%29.87 "Hg9 mi
8:00 am77 °FScattered clouds.6 mph89%29.87 "Hg9 mi
7:00 am75 °FMostly cloudy.6 mph89%29.87 "Hg9 mi
6:00 am75 °FMostly cloudy.3 mph94%29.86 "Hg9 mi
5:00 am77 °FPassing clouds.5 mph83%29.86 "Hg9 mi
4:57 am77 °FPassing clouds.3 mph83%29.85 "Hg9 mi
4:32 am75 °FLight rain. Passing clouds.No wind89%29.85 "Hg9 mi
4:21 am77 °FMostly cloudy.2 mph83%29.85 "Hg9 mi
4:01 am75 °FLight rain. Overcast.3 mph89%29.85 "Hg9 mi
3:00 am77 °FOvercast.No wind83%29.88 "Hg9 mi
2:00 am77 °FPartly cloudy.5 mph79%29.89 "Hg9 mi
1:00 am77 °FMostly cloudy.2 mph79%29.90 "Hg9 mi
12:00 am75 °FPassing clouds.3 mph83%29.88 "Hg9 mi
11:00 pm
Thu, Jul 9
77 °FClear.3 mph79%29.89 "Hg9 mi
10:00 pm79 °FClear.3 mph79%29.90 "Hg9 mi
Weather by CustomWeather, © 2020

See weather overview